Time,TemperatureF,DewpointF,PressureIn,WindDirection,WindDirectionDegrees,WindSpeedMPH,WindSpeedGustMPH,Humidity,HourlyPrecipIn,Conditions,Clouds,dailyrainin,SoftwareType,DateUTC
2013-07-04 00:07:00,67.8,65.0,30.04,WSW,248,0.0,3.0,91,0.00,,,0.00,weatherlink.com 1.10,2013-07-04 04:07:00,
2013-07-04 00:22:00,67.2,65.0,30.04,SW,233,0.0,1.0,92,0.00,,,0.00,weatherlink.com 1.10,2013-07-04 04:22:00,
2013-07-04 00:37:00,66.8,65.0,30.04,SSE,156,0.0,1.0,93,0.00,,,0.00,weatherlink.com 1.10,2013-07-04 04:37:00,
2013-07-04 00:52:00,66.6,65.0,30.04,South,189,0.0,1.0,93,0.00,,,0.00,weatherlink.com 1.10,2013-07-04 04:52:00,
2013-07-04 01:07:00,66.4,65.0,30.04,South,172,0.0,1.0,94,0.00,,,0.00,weatherlink.com 1.10,2013-07-04 05:07:00,
2013-07-04 01:22:00,65.8,64.0,30.04,South,176,0.0,0.0,95,0.00,,,0.00,weatherlink.com 1.10,2013-07-04 05:22:00,
2013-07-04 01:37:00,65.3,64.0,30.04,SW,219,0.0,1.0,95,0.00,,,0.00,weatherlink.com 1.10,2013-07-04 05:37:00,
2013-07-04 01:52:00,64.8,64.0,30.04,WSW,250,0.0,2.0,96,0.00,,,0.00,weatherlink.com 1.10,2013-07-04 05:52:00,
2013-07-04 02:07:00,64.6,64.0,30.04,WSW,257,1.0,1.0,96,0.00,,,0.00,weatherlink.com 1.10,2013-07-04 06:07:00,
2013-07-04 02:22:00,64.7,64.0,30.03,West,268,2.0,4.0,96,0.00,,,0.00,weatherlink.com 1.10,2013-07-04 06:22:00,
2013-07-04 02:37:00,64.6,64.0,30.03,West,260,1.0,3.0,96,0.00,,,0.00,weatherlink.com 1.10,2013-07-04 06:37:00,
2013-07-04 02:52:00,64.5,64.0,30.03,West,259,0.0,2.0,97,0.00,,,0.00,weatherlink.com 1.10,2013-07-04 06:52:00,
2013-07-04 03:07:00,64.5,64.0,30.03,West,267,0.0,2.0,97,0.00,,,0.00,weatherlink.com 1.10,2013-07-04 07:07:00,
2013-07-04 03:22:00,64.5,64.0,30.03,West,266,1.0,2.0,97,0.00,,,0.00,weatherlink.com 1.10,2013-07-04 07:22:00,
2013-07-04 03:37:00,64.6,64.0,30.02,West,278,1.0,3.0,97,0.00,,,0.00,weatherlink.com 1.10,2013-07-04 07:37:00,
2013-07-04 03:52:00,64.6,64.0,30.02,West,259,2.0,4.0,97,0.00,,,0.00,weatherlink.com 1.10,2013-07-04 07:52:00,
2013-07-04 04:08:00,64.5,64.0,30.02,West,276,1.0,4.0,97,0.00,,,0.00,weatherlink.com 1.10,2013-07-04 08:08:00,
2013-07-04 04:23:00,64.6,64.0,30.03,WSW,256,1.0,3.0,97,0.00,,,0.00,weatherlink.com 1.10,2013-07-04 08:23:00,
2013-07-04 04:38:00,64.3,64.0,30.03,West,260,1.0,3.0,97,0.01,,,0.01,weatherlink.com 1.10,2013-07-04 08:38:00,
2013-07-04 04:53:00,64.1,63.0,30.03,West,269,0.0,3.0,97,0.01,,,0.01,weatherlink.com 1.10,2013-07-04 08:53:00,
2013-07-04 05:08:00,63.9,63.0,30.03,WSW,258,0.0,2.0,97,0.01,,,0.01,weatherlink.com 1.10,2013-07-04 09:08:00,
2013-07-04 05:23:00,63.6,63.0,30.04,WSW,258,0.0,1.0,97,0.01,,,0.01,weatherlink.com 1.10,2013-07-04 09:23:00,
2013-07-04 05:38:00,63.6,63.0,30.04,SW,233,0.0,2.0,98,0.00,,,0.01,weatherlink.com 1.10,2013-07-04 09:38:00,
2013-07-04 05:53:00,63.6,63.0,30.04,WSW,249,0.0,1.0,98,0.00,,,0.01,weatherlink.com 1.10,2013-07-04 09:53:00,
2013-07-04 06:08:00,63.6,63.0,30.04,West,278,0.0,1.0,98,0.00,,,0.01,weatherlink.com 1.10,2013-07-04 10:08:00,
2013-07-04 06:23:00,63.6,63.0,30.05,West,264,1.0,2.0,98,0.00,,,0.01,weatherlink.com 1.10,2013-07-04 10:23:00,
2013-07-04 06:38:00,63.7,63.0,30.06,West,260,1.0,2.0,98,0.00,,,0.01,weatherlink.com 1.10,2013-07-04 10:38:00,
2013-07-04 06:53:00,63.9,63.0,30.06,West,259,0.0,1.0,98,0.00,,,0.01,weatherlink.com 1.10,2013-07-04 10:53:00,
2013-07-04 07:08:00,64.3,64.0,30.07,WSW,239,0.0,3.0,98,0.00,,,0.01,weatherlink.com 1.10,2013-07-04 11:08:00,
2013-07-04 07:23:00,64.9,64.0,30.07,WSW,245,1.0,2.0,97,0.00,,,0.01,weatherlink.com 1.10,2013-07-04 11:23:00,
2013-07-04 07:38:00,65.6,65.0,30.07,West,278,3.0,4.0,97,0.00,,,0.01,weatherlink.com 1.10,2013-07-04 11:38:00,
2013-07-04 07:53:00,66.2,65.0,30.07,West,277,0.0,4.0,97,0.00,,,0.01,weatherlink.com 1.10,2013-07-04 11:53:00,
2013-07-04 08:08:00,67.3,66.0,30.08,West,264,0.0,4.0,95,0.00,,,0.01,weatherlink.com 1.10,2013-07-04 12:08:00,
2013-07-04 08:23:00,68.3,66.0,30.07,WSW,246,0.0,4.0,93,0.00,,,0.01,weatherlink.com 1.10,2013-07-04 12:23:00,
2013-07-04 08:38:00,69.9,67.0,30.08,West,262,1.0,2.0,91,0.00,,,0.01,weatherlink.com 1.10,2013-07-04 12:38:00,
2013-07-04 08:53:00,70.5,66.0,30.08,WSW,256,0.0,5.0,86,0.00,,,0.01,weatherlink.com 1.10,2013-07-04 12:53:00,
2013-07-04 09:08:00,71.0,67.0,30.08,WSW,247,1.0,5.0,86,0.00,,,0.01,weatherlink.com 1.10,2013-07-04 13:08:00,
2013-07-04 09:23:00,71.6,67.0,30.08,West,263,0.0,6.0,86,0.00,,,0.01,weatherlink.com 1.10,2013-07-04 13:23:00,
2013-07-04 09:38:00,73.3,67.0,30.08,West,278,0.0,4.0,81,0.00,,,0.01,weatherlink.com 1.10,2013-07-04 13:38:00,
2013-07-04 09:53:00,73.8,67.0,30.08,WSW,257,0.0,5.0,79,0.00,,,0.01,weatherlink.com 1.10,2013-07-04 13:53:00,
2013-07-04 10:08:00,75.4,69.0,30.08,WNW,293,1.0,6.0,79,0.00,,,0.01,weatherlink.com 1.10,2013-07-04 14:08:00,
2013-07-04 10:23:00,74.7,67.0,30.08,West,280,5.0,8.0,78,0.00,,,0.01,weatherlink.com 1.10,2013-07-04 14:23:00,
2013-07-04 10:38:00,74.8,68.0,30.07,WNW,293,0.0,7.0,79,0.00,,,0.01,weatherlink.com 1.10,2013-07-04 14:38:00,
2013-07-04 10:53:00,74.5,67.0,30.07,SSW,194,0.0,4.0,77,0.00,,,0.01,weatherlink.com 1.10,2013-07-04 14:53:00,
2013-07-04 11:08:00,73.9,67.0,30.07,West,262,0.0,6.0,78,0.00,,,0.01,weatherlink.com 1.10,2013-07-04 15:08:00,
2013-07-04 11:23:00,74.0,67.0,30.07,WSW,242,3.0,5.0,78,0.00,,,0.01,weatherlink.com 1.10,2013-07-04 15:23:00,
2013-07-04 11:38:00,74.7,67.0,30.07,West,280,0.0,5.0,77,0.00,,,0.01,weatherlink.com 1.10,2013-07-04 15:38:00,
2013-07-04 11:53:00,75.2,67.0,30.07,West,260,3.0,7.0,75,0.00,,,0.01,weatherlink.com 1.10,2013-07-04 15:53:00,
2013-07-04 12:08:00,75.1,66.0,30.07,West,276,3.0,10.0,73,0.00,,,0.01,weatherlink.com 1.10,2013-07-04 16:08:00,
2013-07-04 12:23:00,75.5,66.0,30.07,SW,225,3.0,9.0,73,0.00,,,0.01,weatherlink.com 1.10,2013-07-04 16:23:00,
2013-07-04 12:38:00,75.5,66.0,30.07,WSW,240,2.0,10.0,72,0.00,,,0.01,weatherlink.com 1.10,2013-07-04 16:38:00,
2013-07-04 12:53:00,76.9,66.0,30.07,WNW,285,2.0,8.0,68,0.00,,,0.01,weatherlink.com 1.10,2013-07-04 16:53:00,
2013-07-04 13:08:00,77.4,64.0,30.07,WSW,243,5.0,9.0,64,0.00,,,0.01,weatherlink.com 1.10,2013-07-04 17:08:00,
2013-07-04 13:24:00,77.3,63.0,30.07,WSW,243,9.0,11.0,62,0.00,,,0.01,weatherlink.com 1.10,2013-07-04 17:24:00,
2013-07-04 13:39:00,77.4,64.0,30.07,West,274,4.0,11.0,64,0.00,,,0.01,weatherlink.com 1.10,2013-07-04 17:39:00,
2013-07-04 13:54:00,77.0,62.0,30.07,WSW,248,5.0,9.0,60,0.00,,,0.01,weatherlink.com 1.10,2013-07-04 17:54:00,
2013-07-04 14:09:00,77.2,63.0,30.07,West,269,7.0,11.0,62,0.00,,,0.01,weatherlink.com 1.10,2013-07-04 18:09:00,
2013-07-04 14:24:00,79.0,63.0,30.06,WNW,284,3.0,7.0,59,0.00,,,0.01,weatherlink.com 1.10,2013-07-04 18:24:00,
2013-07-04 14:39:00,78.7,62.0,30.06,WSW,252,3.0,11.0,57,0.00,,,0.01,weatherlink.com 1.10,2013-07-04 18:39:00,
2013-07-04 14:54:00,79.1,63.0,30.06,West,269,2.0,8.0,58,0.00,,,0.01,weatherlink.com 1.10,2013-07-04 18:54:00,
2013-07-04 15:09:00,78.7,62.0,30.06,West,269,5.0,11.0,57,0.00,,,0.01,weatherlink.com 1.10,2013-07-04 19:09:00,
2013-07-04 15:24:00,79.7,63.0,30.05,WSW,246,6.0,10.0,57,0.00,,,0.01,weatherlink.com 1.10,2013-07-04 19:24:00,
2013-07-04 15:39:00,79.2,64.0,30.05,WSW,248,0.0,7.0,60,0.00,,,0.01,weatherlink.com 1.10,2013-07-04 19:39:00,
2013-07-04 15:54:00,80.4,64.0,30.04,WSW,255,7.0,14.0,57,0.00,,,0.01,weatherlink.com 1.10,2013-07-04 19:54:00,
2013-07-04 16:09:00,80.8,63.0,30.04,WSW,243,5.0,10.0,54,0.00,,,0.01,weatherlink.com 1.10,2013-07-04 20:09:00,
2013-07-04 16:24:00,80.4,62.0,30.03,WSW,239,4.0,9.0,54,0.00,,,0.01,weatherlink.com 1.10,2013-07-04 20:24:00,
2013-07-04 16:39:00,79.9,62.0,30.04,WNW,294,5.0,10.0,54,0.00,,,0.01,weatherlink.com 1.10,2013-07-04 20:39:00,
2013-07-04 16:54:00,79.7,63.0,30.04,WSW,257,2.0,7.0,56,0.00,,,0.01,weatherlink.com 1.10,2013-07-04 20:54:00,
2013-07-04 17:09:00,80.7,63.0,30.04,WSW,248,1.0,8.0,55,0.00,,,0.01,weatherlink.com 1.10,2013-07-04 21:09:00,
2013-07-04 17:24:00,78.6,60.0,30.04,WSW,250,5.0,10.0,54,0.00,,,0.01,weatherlink.com 1.10,2013-07-04 21:24:00,
2013-07-04 17:39:00,78.6,62.0,30.03,West,269,4.0,9.0,56,0.00,,,0.01,weatherlink.com 1.10,2013-07-04 21:39:00,
2013-07-04 17:54:00,79.1,62.0,30.04,WSW,242,2.0,7.0,56,0.00,,,0.01,weatherlink.com 1.10,2013-07-04 21:54:00,
2013-07-04 18:09:00,79.3,62.0,30.03,WSW,248,4.0,10.0,55,0.00,,,0.01,weatherlink.com 1.10,2013-07-04 22:09:00,
2013-07-04 18:24:00,79.5,61.0,30.03,West,262,5.0,10.0,54,0.00,,,0.01,weatherlink.com 1.10,2013-07-04 22:24:00,
2013-07-04 18:39:00,78.7,62.0,30.03,WSW,256,3.0,12.0,56,0.00,,,0.01,weatherlink.com 1.10,2013-07-04 22:39:00,
2013-07-04 18:54:00,78.4,62.0,30.02,West,281,4.0,8.0,57,0.00,,,0.01,weatherlink.com 1.10,2013-07-04 22:54:00,
2013-07-04 19:09:00,78.5,62.0,30.02,SW,224,2.0,9.0,57,0.00,,,0.01,weatherlink.com 1.10,2013-07-04 23:09:00,
2013-07-04 19:24:00,78.7,63.0,30.02,WSW,243,2.0,8.0,58,0.00,,,0.01,weatherlink.com 1.10,2013-07-04 23:24:00,
2013-07-04 19:39:00,77.6,63.0,30.02,SW,229,2.0,7.0,60,0.00,,,0.01,weatherlink.com 1.10,2013-07-04 23:39:00,
2013-07-04 19:54:00,77.0,63.0,30.02,WSW,243,1.0,6.0,62,0.00,,,0.01,weatherlink.com 1.10,2013-07-04 23:54:00,
2013-07-04 20:09:00,76.3,63.0,30.02,West,270,1.0,7.0,63,0.00,,,0.01,weatherlink.com 1.10,2013-07-05 00:09:00,
2013-07-04 20:24:00,75.7,63.0,30.03,West,269,0.0,4.0,65,0.00,,,0.01,weatherlink.com 1.10,2013-07-05 00:24:00,
2013-07-04 20:39:00,75.1,63.0,30.02,WSW,242,1.0,3.0,66,0.00,,,0.01,weatherlink.com 1.10,2013-07-05 00:39:00,
2013-07-04 20:54:00,74.2,63.0,30.02,WSW,250,0.0,2.0,68,0.00,,,0.01,weatherlink.com 1.10,2013-07-05 00:54:00,
2013-07-04 21:09:00,73.4,63.0,30.02,WSW,245,0.0,1.0,70,0.00,,,0.01,weatherlink.com 1.10,2013-07-05 01:09:00,
2013-07-04 21:24:00,72.6,63.0,30.02,WSW,246,0.0,1.0,73,0.00,,,0.01,weatherlink.com 1.10,2013-07-05 01:24:00,
2013-07-04 21:39:00,71.9,64.0,30.03,WSW,252,0.0,1.0,76,0.00,,,0.01,weatherlink.com 1.10,2013-07-05 01:39:00,
2013-07-04 21:54:00,71.2,64.0,30.04,West,260,0.0,1.0,77,0.00,,,0.01,weatherlink.com 1.10,2013-07-05 01:54:00,
2013-07-04 22:09:00,70.8,64.0,30.04,WSW,258,0.0,0.0,78,0.00,,,0.01,weatherlink.com 1.10,2013-07-05 02:09:00,
2013-07-04 22:24:00,70.3,64.0,30.04,WSW,256,0.0,1.0,80,0.00,,,0.01,weatherlink.com 1.10,2013-07-05 02:24:00,
2013-07-04 22:39:00,69.9,64.0,30.04,WSW,255,0.0,1.0,80,0.00,,,0.01,weatherlink.com 1.10,2013-07-05 02:39:00,
2013-07-04 22:54:00,69.5,64.0,30.05,WSW,255,0.0,0.0,82,0.00,,,0.01,weatherlink.com 1.10,2013-07-05 02:54:00,
2013-07-04 23:09:00,69.1,63.0,30.05,WSW,255,0.0,0.0,82,0.00,,,0.01,weatherlink.com 1.10,2013-07-05 03:09:00,
2013-07-04 23:24:00,68.5,63.0,30.05,WSW,255,0.0,1.0,83,0.00,,,0.01,weatherlink.com 1.10,2013-07-05 03:24:00,
2013-07-04 23:39:00,67.9,63.0,30.05,WSW,242,0.0,1.0,85,0.00,,,0.01,weatherlink.com 1.10,2013-07-05 03:39:00,
2013-07-04 23:54:00,67.4,63.0,30.05,WSW,242,0.0,0.0,86,0.00,,,0.01,weatherlink.com 1.10,2013-07-05 03:54:00,